User: anonymous   Login
Location: Caltech
(34.1382°N, 118.1253°W)
Time: 19:18:06
(UTC-08:00)
Language:

Iridium 94 - Orbit

View from above orbital plane
View from above orbital plane
View from above satellite
View from above satellite

Ground track
Ground track

The orbit data is extracted from the following two-line orbital elements,

1 27374U 02005C   18048.37703880  .00000209  00000-0  67707-4 0  9999
2 27374  86.4007 153.2738 0001897  81.2637 343.2812 14.34222787851097
Epoch (UTC): 17 February 2018 09:02:56
Eccentricity: 0.0001897
inclination: 86.4007°
perigee height: 776 km
apogee height: 779 km
right ascension of ascending node: 153.2738°
argument of perigee: 81.2637°
revolutions per day: 14.34222787
mean anomaly at epoch: 343.2812°
orbit number at epoch: 85109

The dashed part of the orbit path shows where the satellite is in the earth's shadow,  

DLR